Cloud_Cover
4 74 19 7 51 71 100 83 4 0 0 0 0 34 100 38 100 1 0 44 11 82 93 60 46 99 94 94 69 100 100 30 65 54 97 100 100 100 100 96 88 36 97
98 25 25 19 78 98 98 0 0 0 0 0 0 40 39 100 5 0 0 4 98 14 14 42 78 63 94 100 99 100 100 42 30 100 100 97 100 100 98 95 100 84 100
90 100 86 62 100 90 3 0 0 0 0 1 5 98 88 12 82 0 34 100 18 95 93 100 100 98 99 100 99 100 100 100 100 43 100 100 100 100 100 100 100 100 100
100 100 100 100 100 62 0 0 0 0 0 18 0 0 0 75 100 84 86 97 46 100 100 100 100 100 100 100 100 98 100 100 100 100 100 100 100 100 100 100 100 100 100
100 100 100 100 100 2 0 0 0 0 0 0 0 93 46 100 43 100 100 42 77 82 99 78 99 86 100 100 100 86 73 100 100 100 100 100 100 100 100 100 100 100 100
100 100 100 99 2 0 0 2 0 0 4 56 83 100 100 100 100 100 81 85 41 70 100 73 100 100 100 99 100 100 100 100 79 100 100 100 100 100 100 100 100 100 100
100 95 2 0 15 0 37 7 84 0 100 100 31 12 2 73 100 100 100 64 83 100 100 100 100 100 100 100 100 100 100 100 70 70 100 100 100 100 100 100 100 100 100
55 0 0 59 13 1 31 97 81 0 42 0 2 0 76 21 100 100 100 77 100 100 100 100 100 68 68 24 15 44 14 4 39 52 46 100 100 100 100 97 97 100 100
0 0 0 46 0 0 38 42 1 1 2 0 0 19 16 6 100 100 96 87 100 100 100 100 100 73 95 88 8 91 47 21 61 89 76 100 100 100 100 78 100 100 100
9 11 9 100 1 14 82 34 0 4 1 0 0 46 47 6 100 100 95 100 100 100 98 100 98 56 100 100 23 97 35 100 100 100 100 100 100 100 100 100 18 98 100
12 34 96 95 100 98 81 0 1 3 0 0 5 81 30 5 63 100 100 100 100 100 94 98 47 100 100 100 100 100 100 100 100 100 100 100 100 100 100 100 100 100 100
25 90 3 6 100 3 49 0 3 0 0 4 5 82 15 5 65 96 100 100 100 100 100 66 50 100 100 100 100 100 97 100 100 100 100 100 100 100 100 100 100 100 100
93 1 0 0 42 45 0 0 0 3 10 56 3 18 13 29 29 100 100 100 100 100 100 100 98 100 100 100 97 46 54 64 100 100 100 100 98 100 100 100 100 100 100
37 0 0 0 79 69 0 3 93 19 54 5 27 40 87 45 8 100 100 98 99 76 90 100 100 100 100 93 100 100 95 87 76 100 100 100 100 100 92 99 100 100 100
0 0 0 0 100 4 36 14 12 42 73 100 5 75 92 100 76 85 72 100 84 73 98 100 100 100 100 100 100 100 100 100 96 100 100 100 84 58 74 96 72 39 100
0 0 0 12 27 8 0 5 100 86 100 100 18 26 100 85 97 100 100 100 91 96 100 100 100 100 100 100 100 100 100 97 94 100 100 100 100 68 77 100 64 74 94
0 0 59 31 100 97 8 0 5 88 100 100 95 97 66 99 100 100 100 100 100 100 100 100 100 100 100 100 100 100 100 100 100 100 100 100 100 93 100 100 100 90 100
1 20 57 100 67 6 96 14 87 2 3 34 98 99 100 100 100 100 100 92 99 97 100 100 100 100 100 100 100 100 100 100 92 100 78 94 100 100 89 100 46 29 91
0 89 99 100 4 78 87 22 83 100 100 5 72 99 100 100 100 100 100 70 100 99 62 88 100 100 99 99 100 100 97 96 100 100 100 100 99 89 83 81 99 100 51
0 62 100 100 8 1 99 66 16 31 2 5 9 43 100 100 100 100 90 86 94 100 99 71 100 100 100 100 100 60 38 58 21 18 21 61 92 88 60 37 7 45 5
100 100 100 100 0 0 95 31 0 4 5 80 92 50 16 15 37 84 100 98 99 100 75 100 100 86 94 79 16 48 56 7 12 40 79 77 66 75 100 97 65 42 18
98 95 100 98 3 98 22 53 0 0 5 5 60 33 48 5 13 10 33 88 100 100 75 74 83 73 6 6 40 36 28 22 64 41 95 42 4 8 8 9 93 100 93
68 100 100 100 100 78 68 94 32 4 61 4 38 3 4 4 59 43 38 94 89 64 100 100 100 80 80 94 92 83 63 27 66 45 1 86 86 56 83 74 62 1 31
96 19 100 100 100 100 14 97 64 96 4 0 0 0 23 96 92 100 88 62 100 100 78 75 100 100 100 100 100 100 100 72 90 100 90 94 100 100 87 93 100 100 100
100 97 100 100 100 100 100 2 40 100 12 1 0 28 76 68 100 87 100 100 32 84 100 41 50 100 100 22 84 100 100 100 100 100 100 100 100 70 100 100 100 100 100
100 100 100 100 100 99 91 100 38 11 2 11 0 0 4 93 100 39 34 17 35 21 62 92 96 99 100 100 100 99 100 87 84 2 10 49 77 28 32 74 88 100 57